sat.trackr.live / text

‹ back to catalog

STARLINK-3872

NORAD 52453 · 2022-049C

PAYLOAD ACTIVE UNKNOWN

§ Identity

Operator
Country
US
Launch date
2022-05-06
Launch site
AFETR
Launch vehicle
Mass (kg)
RCS (m²)

Purposes: comms

External: N2YO · Heavens-Above · Gunter

§ Orbital elements

Epoch: 2026-05-25T03:29:42.386208Z

Period
95.44 min
Inclination
53.2131°
Eccentricity
0.0002133
Mean motion
15.08829153 rev/d
Perigee alt
538.3 km
Apogee alt
541.3 km
Semi-major
6,917.9 km
B*
-1.6298e-4
RAAN
85.8920°
Arg perigee
98.4526°
Mean anomaly
261.6708°
Rev number
22,365

§ Raw data

STARLINK-38721 52453U 22049C   26145.14562947 -.00002881  00000+0 -16298-3 0  99912 52453  53.2131  85.8920 0002133  98.4526 261.6708 15.08829153223651

JSON: /api/v1/satellites/52453 · /tle

For live sub-satellite position, see the globe view (requires WebGL).

§ Visibility from observer

Set your observer location to see the next 7 days of passes ≥ 10°. The values pass through the URL so the page stays shareable.

No JS? Fill the form by hand. The geolocation button needs JavaScript.